Weather Roundup
Issued by NWS Chicago, IL

Home | Current Version | Previous Version | Text Only | Print | Product List | Glossary On
Versions: 1 2 3 4 5 6 7 8 9 10 11 12 13 14 15 16 17 18 19 20 21 22 23 24 25 26 27 28 29 30 31 32 33 34 35 36 37 38 39 40 41 42 43 44 45 46 47 48 49 50
000
NZUS59 KLOT 290409
HRRLOT

CHICAGO AREA WEATHER ROUNDUP
NATIONAL WEATHER SERVICE CHICAGO/ROMEOVILLE IL
1100 PM CDT SUN AUG 28 2016

NOTE: "FAIR" INDICATES FEW OR NO CLOUDS BELOW 12,000 FEET WITH NO
SIGNIFICANT WEATHER AND/OR OBSTRUCTIONS TO VISIBILITY.

* THESE STATIONS ARE NOT UNDER NWS QUALITY CONTROL. THEY ALSO MAY NOT
  REPORT WEATHER SUCH AS PRECIPITATION OR FOG.

ILZ005-006-012>014-019>023-290500-
NORTHEAST ILLINOIS

CITY           SKY/WX    TMP DP  RH WIND       PRES   REMARKS
OHARE          MOCLDY    73  68  84 E6        30.22R
MIDWAY         MOCLDY    75  69  81 E7        30.22R
AURORA         CLOUDY    71  68  90 N3        30.23R
LANSING*       CLEAR     72  72 100 CALM      30.23R
JOLIET*        PTCLDY    71  70  98 CALM      30.23R
WAUKEGAN       PTCLDY    68  66  93 CALM      30.23R FOG
DUPAGE AIRPORT CLOUDY    72  68  87 E3        30.23R
WHEELING       PTCLDY    72  69  90 CALM      30.24R
KANKAKEE*      CLEAR     70  70  98 CALM      30.23R
MORRIS*        PTCLDY    68  67  97 CALM      30.21R FOG
LEWIS AIRPORT* MOCLDY    70  70 100 E3        30.23R
$$

WIZ051-052-058>065-066-070>072-290500-
SOUTHEAST WISCONSIN

CITY           SKY/WX    TMP DP  RH WIND       PRES   REMARKS
MILWAUKEE      CLOUDY    68  66  93 NE5       30.23R
KENOSHA*       MOCLDY    67  66  97 E3        30.24R
RACINE*        PTCLDY    68  65  90 CALM      30.25R
BURLINGTON     MOCLDY    65  65  98 CALM      30.24R
WAUKESHA       CLEAR     64  64 100 SE3       30.25R
$$

INZ001>003-010>013-019-020-290500-
NORTHWEST INDIANA

CITY           SKY/WX    TMP DP  RH WIND       PRES   REMARKS
GARY*          CLEAR     74  71  90 NE5       30.23R
MICHIGAN CITY* NOT AVBL
RENSSELAER*    NOT AVBL
VALPARAISO     CLEAR     69  68  96 N5        30.24R
$$

LMZ740>746-290500-
SOUTHERN LAKE MICHIGAN

STATION/POSITION TIME  SKY/WX   TEMP WIND        PRES    VSBY
                                AIR  DIR/SP/G
                 (UTC)          (F)  (DEG/KT/KT) (MB)    (MI)
HARRISON CRIB    0300            75   80/ 10/ 11   N/A
BURNHAM HARBOR   0400            73   70/  4/  8   N/A
CALUMET HARBOR   0300            73   50/  7/  9 1022.7R
BURNS HARBOR     0302            73   70/ 11/ 12 1023.7R
MICHIGAN CITY    0300            73   40/  9/ 10   N/A
$$

ABBREVIATIONS USED IN REMARKS
   TC - TEMPERATURE IN CELSIUS
  WCI - WIND CHILL INDEX
   HX - HEAT INDEX
  VSB - VISIBILITY
$$




USA.gov is the U.S. government's official web portal to all federal, state and local government web resources and services.